Location: Unspecified
(47.4992°N, 121.7766°W)
Time: 17:50:52
(UTC-07:00)

ISS - Pass Details

Date: 28 April 2024
Orbit: 409 x 414 km, 51.6° (Epoch: 20 May)

Event Time Altitude Azimuth Distance (km) Brightness Sun altitude
Exits shadow 02:35:50 11° 92° (E) 1,439 -0.8 -24.9°
Drops below altitude 10° 02:35:58 10° 90° (E) 1,478 -0.7 -24.8°
Sets 02:38:25 0° 73° (ENE) 2,342 0.6 -24.7°
